Date String (YYYY-MM-DD hh:mm:ss) UTC,Instrument flags,Ambient pressure (hPa),Sample flow (lpm),Bypass flow (lpm),Sample temperature (°C),Ambient temperature (°C),ASC tube jacket temperature (°C),LED temperature (°C),Box temperature (°C),Sample RH (%),Span deviation,Mass concentration (μg/m³),Mass concentration (μg/m³),Mass concentration (μg/m³)
DateTimeUTC,F1_M11,P_M11,Q1_M11,Q2_M11,T1_M11,T2_M11,T3_M11,T4_M11,T5_M11,U1_M11,ZSPAN_M11,X0_M11,X2_M11,X1_M11
2022-04-03 08:00:00,,0821.8,4.99,0.00,28.9,28.1,00.0,37.9,30.7,10.0,0000.0,0010.30,0004.36,0002.65
2022-04-03 08:01:00,,0821.8,5.00,0.00,28.9,28.1,00.0,37.9,30.7,10.0,0000.0,0010.56,0004.43,0002.75
2022-04-03 08:02:00,,0821.8,5.02,0.00,29.0,28.1,00.0,37.9,30.7,09.9,0000.0,0010.95,0004.47,0002.84
2022-04-03 08:03:00,,0821.8,5.00,0.00,29.0,28.1,00.0,37.9,30.7,09.8,0000.0,0010.93,0004.45,0002.90
2022-04-03 08:04:00,,0821.7,5.00,0.00,29.0,28.1,00.0,37.9,30.7,09.8,0000.0,0010.95,0004.44,0002.94
2022-04-03 08:05:00,,0821.7,4.99,0.00,29.0,28.1,00.0,37.9,30.7,09.7,0000.0,0010.99,0004.52,0003.02
2022-04-03 08:06:00,,0821.7,4.99,0.00,29.0,28.2,00.0,37.9,30.8,09.6,0000.0,0010.92,0004.59,0003.09
2022-04-03 08:07:00,,0821.7,4.99,0.00,29.0,28.2,00.0,37.9,30.8,09.6,0000.0,0010.93,0004.62,0003.11
2022-04-03 08:08:00,,0821.5,5.01,0.00,29.0,28.2,00.0,37.9,30.8,09.5,0000.0,0011.07,0004.65,0003.10
2022-04-03 08:09:00,,0821.5,4.99,0.00,29.0,28.2,00.0,37.9,30.8,09.5,0000.0,0011.41,0004.64,0003.08
2022-04-03 08:10:00,,0821.4,4.99,0.00,29.0,28.2,00.0,38.0,30.8,09.5,0000.0,0011.87,0004.57,0003.04
2022-04-03 08:11:00,,0821.4,5.00,0.00,29.0,28.2,00.0,38.0,30.8,09.5,0000.0,0011.62,0004.56,0003.03
2022-04-03 08:12:00,,0821.4,5.02,0.00,29.0,28.2,00.0,38.0,30.8,09.8,0000.0,0011.27,0004.49,0002.97
2022-04-03 08:13:00,,0821.4,4.99,0.00,29.1,28.2,00.0,38.0,30.8,09.5,0000.0,0011.02,0004.43,0002.91
2022-04-03 08:14:00,,0821.4,4.99,0.00,29.1,28.2,00.0,38.0,30.8,09.8,0000.0,0011.01,0004.43,0002.87
2022-04-03 08:15:00,,0821.4,5.01,0.00,29.1,28.2,00.0,38.0,30.8,09.9,0000.0,0010.81,0004.43,0002.85
2022-04-03 08:16:00,,0821.4,4.99,0.00,29.1,28.2,00.0,38.0,30.8,09.8,0000.0,0010.75,0004.38,0002.78
2022-04-03 08:17:00,,0821.4,5.00,0.00,29.1,28.2,00.0,38.0,30.8,09.8,0000.0,0010.83,0004.39,0002.73
2022-04-03 08:18:00,,0821.4,5.00,0.00,29.1,28.1,00.0,38.0,30.8,09.7,0000.0,0012.04,0004.41,0002.73
2022-04-03 08:19:00,,0821.4,5.01,0.00,29.0,28.1,00.0,38.0,30.8,09.8,0000.0,0012.12,0004.39,0002.76
2022-04-03 08:20:00,,0821.4,4.99,0.00,29.0,28.1,00.0,38.0,30.7,09.8,0000.0,0011.84,0004.37,0002.78
2022-04-03 08:21:00,,0821.4,5.00,0.00,29.0,28.1,00.0,38.0,30.7,09.8,0000.0,0011.48,0004.47,0002.83
2022-04-03 08:22:00,,0821.4,5.00,0.00,29.0,28.1,00.0,38.0,30.7,09.8,0000.0,0011.67,0004.50,0002.88
2022-04-03 08:23:00,,0821.5,5.01,0.00,28.9,28.0,00.0,38.0,30.6,09.8,0000.0,0011.90,0004.58,0002.97
2022-04-03 08:24:00,,0821.4,5.00,0.00,28.9,27.9,00.0,38.0,30.6,09.8,0000.0,0011.73,0004.65,0003.06
2022-04-03 08:25:00,,0821.5,4.99,0.00,28.9,27.8,00.0,37.9,30.5,09.8,0000.0,0011.71,0004.70,0003.13
2022-04-03 08:26:00,,0821.5,5.01,0.00,28.8,27.7,00.0,37.9,30.4,09.9,0000.0,0011.75,0004.74,0003.17
2022-04-03 08:27:00,,0821.5,4.99,0.00,28.7,27.6,00.0,37.9,30.4,10.0,0000.0,0011.96,0004.84,0003.23
2022-04-03 08:28:00,,0821.4,5.01,0.00,28.7,27.6,00.0,37.9,30.3,10.0,0000.0,0012.09,0004.91,0003.28
2022-04-03 08:29:00,,0821.4,4.99,0.00,28.7,27.6,00.0,37.9,30.3,10.1,0000.0,0011.36,0004.98,0003.33
2022-04-03 08:30:00,,0821.4,5.00,0.00,28.6,27.6,00.0,37.8,30.3,10.2,0000.0,0011.06,0005.01,0003.36
2022-04-03 08:31:00,,0821.4,5.01,0.00,28.6,27.6,00.0,37.8,30.3,10.3,0000.0,0011.47,0005.04,0003.41
2022-04-03 08:32:00,,0821.4,4.99,0.00,28.6,27.5,00.0,37.8,30.2,10.3,0000.0,0011.77,0005.12,0003.50
2022-04-03 08:33:00,,0821.4,4.98,0.00,28.5,27.4,00.0,37.8,30.2,10.2,0000.0,0011.71,0005.25,0003.63
2022-04-03 08:34:00,,0821.3,5.01,0.00,28.5,27.3,00.0,37.7,30.1,10.2,0000.0,0011.79,0005.40,0003.78
2022-04-03 08:35:00,,0821.3,4.99,0.00,28.4,27.2,00.0,37.7,30.0,10.3,0000.0,0012.13,0005.55,0003.95
2022-04-03 08:36:00,,0821.4,4.99,0.00,28.4,27.2,00.0,37.7,29.9,10.4,0000.0,0012.43,0005.63,0004.07
2022-04-03 08:37:00,,0821.4,5.02,0.00,28.3,27.1,00.0,37.6,29.9,10.5,0000.5,0012.66,0005.79,0004.21
2022-04-03 08:38:00,,0821.3,5.00,0.00,28.3,27.1,00.0,37.6,29.9,10.6,0002.6,0012.69,0005.88,0004.35
2022-04-03 08:39:00,,0821.4,5.01,0.00,28.3,27.0,00.0,37.5,29.9,10.6,0000.8,0013.21,0006.00,0004.49
2022-04-03 08:40:00,,0821.3,4.99,0.00,28.2,27.0,00.0,37.5,29.9,10.5,0003.1,0013.52,0006.11,0004.61
2022-04-03 08:41:00,,0821.4,4.99,0.00,28.2,27.0,00.0,37.5,29.8,10.4,0002.7,0013.74,0006.31,0004.75
2022-04-03 08:42:00,,0821.4,5.01,0.00,28.2,27.0,00.0,37.5,29.8,10.4,0000.5,0014.31,0006.50,0004.91
2022-04-03 08:43:00,,0821.4,5.01,0.00,28.1,26.9,00.0,37.4,29.8,10.5,0000.0,0014.09,0006.64,0005.03
2022-04-03 08:44:00,,0821.4,5.00,0.00,28.1,26.9,00.0,37.4,29.7,10.5,0000.6,0014.36,0006.73,0005.09
2022-04-03 08:45:00,,0821.4,4.98,0.00,28.1,26.9,00.0,37.4,29.7,10.4,0000.9,0014.56,0006.77,0005.13
2022-04-03 08:46:00,,0821.3,5.00,0.00,28.0,26.9,00.0,37.3,29.6,10.5,-000.0,0015.10,0006.80,0005.16
2022-04-03 08:47:00,,0821.3,5.00,0.00,28.0,26.8,00.0,37.3,29.6,10.6,-000.6,0015.35,0006.91,0005.23
2022-04-03 08:48:00,,0821.3,4.99,0.00,28.0,26.8,00.0,37.3,29.6,10.7,-000.2,0015.41,0006.94,0005.25
2022-04-03 08:49:00,,0821.4,5.01,0.00,27.9,26.7,00.0,37.2,29.6,10.8,-000.1,0015.48,0006.95,0005.26
2022-04-03 08:50:00,,0821.4,5.00,0.00,27.9,26.7,00.0,37.2,29.5,10.8,-000.6,0015.11,0006.96,0005.29
2022-04-03 08:51:00,,0821.4,5.01,0.00,27.8,26.7,00.0,37.2,29.5,10.7,-000.8,0014.78,0006.96,0005.32
2022-04-03 08:52:00,,0821.4,5.00,0.00,27.8,26.7,00.0,37.1,29.5,10.6,-000.9,0014.85,0006.97,0005.36
2022-04-03 08:53:00,,0821.4,4.99,0.00,27.8,26.7,00.0,37.1,29.5,10.6,-000.4,0014.32,0006.95,0005.37
2022-04-03 08:54:00,,0821.4,5.01,0.00,27.8,26.7,00.0,37.1,29.4,10.6,-000.4,0014.24,0006.95,0005.38
2022-04-03 08:55:00,,0821.4,5.00,0.00,27.8,26.7,00.0,37.0,29.4,10.6,0000.8,0014.91,0006.97,0005.39
2022-04-03 08:56:00,,0821.4,4.99,0.00,27.7,26.7,00.0,37.0,29.4,10.6,0000.6,0015.37,0006.96,0005.37
2022-04-03 08:57:00,,0821.5,5.01,0.00,27.7,26.7,00.0,37.0,29.3,10.6,0000.5,0014.92,0006.93,0005.33
2022-04-03 08:58:00,,0821.5,5.00,0.00,27.7,26.7,00.0,36.9,29.3,10.6,0000.0,0014.43,0006.86,0005.27
2022-04-03 08:59:00,,0821.5,4.99,0.00,27.7,26.7,00.0,36.9,29.3,10.5,0000.0,0014.41,0006.82,0005.24
